Wind_Speed
9 10 11 12 14 17 20 22 23 24 26 27 29 31 31 31 32 28 25 23 27 29 28 26 24 22 19 15 14 17 23 31 33 35 41 39 39 33 32 35 36 36 40 37 28
9 11 12 14 17 19 21 22 24 26 28 30 31 32 34 34 30 32 21 28 32 31 29 27 23 22 19 17 16 17 26 27 27 31 36 38 38 39 34 37 40 42 39 35 35
9 11 13 15 18 21 22 25 26 27 28 30 32 33 35 34 33 17 25 32 33 30 28 26 25 26 24 20 18 22 28 23 27 28 31 37 38 37 35 39 41 44 40 39 35
11 13 15 17 19 21 24 25 26 28 30 31 33 34 35 34 17 22 32 34 34 31 26 25 23 23 25 24 20 25 25 24 28 25 31 36 39 42 40 45 37 45 43 38 38
12 14 16 18 19 22 25 28 29 30 32 34 34 37 36 22 17 32 36 37 35 29 24 22 23 25 28 27 27 31 31 30 32 33 33 34 37 40 43 40 38 43 48 48 33
13 15 17 18 20 23 26 28 29 31 33 35 36 37 22 15 26 39 43 40 33 28 23 20 26 27 31 31 31 34 36 35 34 32 32 35 39 35 45 36 36 37 49 48 49
14 16 18 19 21 24 27 29 30 31 33 36 37 22 18 19 38 41 40 33 27 23 23 26 25 24 28 33 23 31 39 43 40 34 29 26 36 41 36 34 34 33 39 45 48
15 16 18 19 20 24 28 28 30 31 34 34 22 24 20 33 37 36 31 24 20 25 26 24 25 27 27 29 33 34 35 37 30 27 29 21 35 31 25 28 29 30 37 39 40
15 16 18 19 21 24 28 29 30 33 35 29 14 33 26 35 33 30 23 19 24 22 25 22 22 24 23 25 27 17 24 30 34 30 26 24 33 28 20 20 22 29 33 36 35
15 17 18 20 22 25 27 28 31 35 32 18 14 28 32 34 32 22 24 24 23 24 21 22 22 26 18 16 13 22 29 33 37 37 33 33 41 39 35 33 30 31 32 35 33
15 17 19 21 24 26 25 30 34 34 27 10 25 42 31 29 29 21 23 27 25 23 20 20 27 13 14 15 22 28 33 40 43 37 37 41 45 43 36 33 33 33 34 34 33
16 17 20 22 26 27 29 30 32 31 24 5 29 40 33 33 34 24 27 26 23 21 23 24 10 17 19 24 27 29 34 41 45 32 25 34 43 43 39 36 33 32 36 36 33
15 16 19 23 26 27 29 33 35 29 17 7 30 36 36 36 24 28 32 28 27 20 23 14 12 20 22 21 23 25 32 32 30 30 30 29 32 20 20 27 30 30 34 35 35
15 16 18 23 26 27 30 33 34 26 3 17 29 26 33 34 18 23 28 25 23 29 25 14 24 16 14 23 23 27 23 27 30 29 12 13 7 29 16 13 13 20 27 31 32
15 17 19 22 25 26 30 32 30 19 5 29 33 26 29 30 25 24 30 22 17 27 29 27 14 13 17 26 23 23 32 32 34 34 29 20 11 8 20 8 5 9 15 23 23
14 16 18 21 22 25 28 30 19 13 5 19 33 26 28 29 24 27 29 26 20 28 31 21 9 15 20 26 23 34 35 28 10 8 5 9 13 5 8 21 25 17 9 18 22
13 15 17 20 21 23 26 26 7 9 26 25 35 29 29 36 26 29 36 33 35 28 38 25 8 21 22 38 33 26 32 4 5 0 4 7 8 3 12 22 22 21 10 15 17
12 14 16 18 19 21 23 21 7 22 24 32 30 22 24 39 22 24 33 26 30 29 23 18 11 20 22 26 32 20 19 7 5 4 7 16 4 4 20 21 17 29 17 15 21
12 13 15 16 17 19 20 12 12 22 26 30 25 23 24 33 24 25 30 22 28 32 24 12 10 18 23 27 29 28 22 19 10 17 6 5 14 5 31 20 19 16 20 15 18
12 13 14 16 15 17 17 14 17 23 25 25 20 22 25 36 27 23 27 17 27 29 19 12 13 15 19 27 30 29 26 6 7 4 4 7 8 25 41 37 39 25 23 13 21
12 13 12 13 14 16 16 16 19 23 25 24 22 23 24 33 25 21 24 14 29 28 18 15 10 24 13 23 34 37 29 8 9 5 3 4 3 33 29 41 39 21 20 22 24
11 12 14 12 11 15 16 17 20 22 22 26 21 26 24 29 19 21 24 22 25 26 20 19 11 20 14 14 41 28 40 22 4 6 7 5 3 20 24 35 28 24 20 24 26
11 11 9 11 9 14 15 15 19 23 21 27 20 26 29 23 14 23 27 24 23 23 18 15 12 14 11 12 37 39 46 28 8 4 23 5 10 19 24 29 24 28 26 23 23
10 8 9 10 11 13 15 14 17 21 19 27 21 26 28 21 18 21 26 24 22 20 17 10 12 13 7 18 19 47 47 41 26 11 11 16 21 14 27 29 31 33 31 29 28
10 9 9 10 11 12 14 14 16 19 20 25 22 25 25 21 17 21 28 26 23 22 16 16 15 17 15 16 11 46 45 45 43 24 14 17 23 23 20 30 33 35 34 35 37
12 11 10 12 10 11 14 15 16 17 19 21 23 22 23 23 16 17 22 27 27 25 22 16 15 16 15 16 14 38 42 44 40 34 32 28 30 23 20 30 36 33 36 37 37
12 11 11 10 10 10 12 16 16 17 16 20 23 20 20 19 9 13 16 19 25 31 28 24 16 15 10 16 14 22 42 31 37 32 32 37 30 36 38 39 39 43 38 42 40
Wind_Direction
359 359 356 353 350 348 345 344 341 339 339 340 336 334 331 328 325 323 317 316 323 323 320 317 316 317 314 305 288 273 260 260 267 270 271 273 273 256 244 246 244 240 243 243 240
350 351 346 345 346 344 341 338 338 338 339 339 339 334 330 328 323 321 317 323 324 321 318 317 315 313 310 304 289 275 268 270 285 277 277 277 276 273 260 243 240 241 239 238 233
338 338 338 343 344 340 339 339 338 335 337 340 336 331 329 325 320 318 322 324 323 321 316 314 313 310 305 301 292 280 269 282 272 275 276 276 275 272 268 257 243 242 244 239 231
331 334 336 341 341 339 338 337 335 335 336 338 335 329 327 322 321 319 325 327 323 318 312 310 308 306 301 299 296 278 280 283 282 275 270 271 275 273 268 262 256 246 248 243 236
327 333 335 341 337 336 337 338 336 335 335 332 331 327 326 319 316 324 326 325 322 318 311 310 306 309 301 296 291 280 288 281 279 276 274 276 274 278 274 268 258 249 251 251 232
326 331 333 337 336 336 338 337 334 334 332 329 327 328 331 322 325 327 325 326 324 317 314 309 309 303 298 299 297 295 287 284 282 280 283 280 274 271 265 275 270 251 247 255 247
322 331 333 336 339 337 337 335 333 335 331 328 328 342 334 331 333 327 325 328 323 318 312 310 302 296 302 302 295 296 293 289 286 291 287 287 272 263 273 270 267 260 251 254 254
322 329 331 335 337 336 335 334 334 334 331 329 339 353 339 336 333 325 327 325 323 318 312 313 306 302 300 302 298 296 294 291 301 299 296 286 280 279 274 268 260 253 252 255 253
322 327 330 335 335 337 336 335 335 336 330 337 357 352 337 333 334 329 334 330 324 321 314 309 300 301 305 300 295 298 284 291 304 302 299 286 284 283 273 264 259 252 248 253 254
323 325 331 333 334 337 336 337 338 334 333 348 355 348 334 338 340 340 338 334 330 321 316 315 319 314 314 308 282 297 292 290 286 292 288 272 271 278 282 277 266 256 247 246 247
321 328 332 333 333 336 338 340 337 339 341 350 347 346 339 342 344 339 341 339 337 336 329 325 321 324 320 310 303 299 295 292 293 298 296 287 286 280 280 269 262 254 250 247 243
325 330 330 332 333 337 343 343 341 338 339 333 345 347 342 345 347 337 339 340 337 342 340 334 345 332 318 307 297 294 295 294 298 306 293 287 281 283 280 264 259 255 249 248 242
324 329 329 332 333 338 343 346 343 340 338 310 344 346 351 343 340 339 340 344 345 353 349 332 331 319 320 329 323 310 303 307 296 308 300 302 295 309 306 268 260 253 248 249 248
322 327 330 331 335 342 347 346 345 341 337 340 348 347 345 347 351 343 347 347 348 354 356 344 331 334 353 354 340 315 330 310 302 298 296 315 297 304 354 336 300 260 245 247 250
322 328 330 332 338 345 347 348 345 346 16 340 341 347 350 355 1 4 354 2 1 358 349 342 348 359 352 354 339 329 324 315 302 286 290 294 241 290 331 341 331 310 242 246 238
322 326 327 334 340 346 347 350 353 0 324 339 340 345 356 10 6 5 8 6 6 356 352 360 348 3 339 343 333 337 333 322 314 256 246 273 208 320 11 332 304 289 272 225 225
318 320 325 335 342 348 349 352 1 44 336 338 343 353 356 3 12 4 2 7 13 359 357 8 15 355 5 0 355 344 349 313 346 5 228 348 201 278 316 306 298 293 235 198 208
311 318 326 336 343 348 352 359 20 344 342 345 344 355 356 2 6 8 6 6 7 5 355 349 340 6 16 5 338 350 335 318 310 313 313 291 303 224 337 333 323 284 230 182 200
307 319 329 337 344 347 354 8 2 353 347 343 350 351 355 356 2 6 7 4 357 4 2 338 309 357 5 7 353 341 338 316 251 279 245 246 3 341 4 33 16 280 175 146 164
303 321 327 334 343 348 354 8 2 358 355 354 353 353 347 349 5 14 8 352 356 358 355 332 303 351 358 356 9 3 352 351 340 317 325 47 52 350 349 33 35 49 137 127 144
299 319 325 332 340 348 358 6 360 358 359 357 350 348 354 351 358 7 5 8 4 357 4 359 318 338 0 11 3 5 2 358 288 279 336 334 86 356 343 44 49 59 111 131 133
297 316 324 333 338 348 353 358 358 357 0 359 356 352 352 0 1 10 3 4 7 359 2 0 324 308 338 12 13 8 12 1 272 25 340 309 28 358 39 72 80 77 113 131 131
293 310 318 329 335 343 349 353 356 356 359 3 358 356 356 4 356 11 18 10 8 6 7 4 347 327 356 352 9 20 26 34 42 64 17 23 332 4 78 96 101 99 101 108 128
291 301 314 327 333 339 345 350 352 355 359 2 1 356 359 6 12 13 15 17 15 12 11 5 356 359 335 323 358 17 26 34 41 29 358 26 359 40 88 107 108 108 111 113 122
275 292 310 316 323 333 340 346 348 352 0 2 1 358 0 3 10 15 17 23 27 23 21 18 14 9 6 2 352 18 22 32 40 44 42 21 38 32 76 104 111 114 116 118 120
264 285 299 313 320 324 337 347 345 350 355 359 2 359 3 3 6 17 18 20 21 32 32 22 18 13 21 25 30 15 24 33 43 49 59 57 55 62 84 107 123 118 114 115 117
254 274 285 298 312 315 331 342 343 349 353 358 0 359 3 6 20 23 17 17 25 29 33 21 12 14 15 4 9 17 11 25 36 39 51 55 62 73 86 96 98 113 115 114 113
Height
3127 3126 3124 3122 3120 3118 3115 3112 3108 3104 3100 3096 3093 3088 3085 3080 3075 3071 3068 3066 3062 3056 3052 3049 3045 3043 3041 3040 3039 3037 3036 3031 3031 3031 3030 3031 3031 3037 3036 3033 3038 3039 3039 3043 3049
3127 3126 3124 3122 3119 3116 3113 3110 3106 3102 3097 3093 3089 3084 3081 3076 3072 3067 3064 3060 3056 3051 3046 3042 3039 3036 3035 3034 3032 3032 3028 3026 3026 3026 3023 3023 3024 3025 3028 3028 3028 3031 3034 3035 3041
3127 3125 3123 3120 3117 3115 3112 3109 3104 3099 3095 3090 3086 3081 3077 3072 3067 3064 3061 3056 3050 3045 3040 3036 3033 3030 3029 3028 3027 3024 3020 3022 3020 3020 3019 3016 3016 3017 3016 3015 3019 3022 3025 3027 3032
3127 3124 3122 3119 3116 3113 3110 3105 3101 3096 3092 3087 3083 3078 3073 3068 3068 3061 3056 3051 3045 3040 3036 3033 3029 3026 3023 3022 3021 3017 3015 3015 3013 3014 3011 3009 3008 3007 3010 3008 3015 3015 3015 3017 3023
3126 3123 3121 3118 3114 3111 3107 3103 3098 3094 3089 3085 3080 3075 3069 3064 3061 3057 3051 3047 3041 3036 3032 3028 3024 3021 3017 3016 3015 3010 3009 3008 3007 3006 3004 3003 3000 2998 2995 3000 3004 3005 3005 3007 3014
3125 3122 3119 3116 3112 3108 3104 3100 3096 3091 3087 3081 3075 3069 3064 3062 3057 3050 3044 3040 3034 3029 3027 3024 3020 3016 3011 3009 3008 3004 3000 2998 2997 2997 2996 2994 2990 2990 2985 2993 2994 2996 2996 2997 3002
3124 3120 3118 3116 3111 3107 3102 3098 3093 3088 3083 3077 3071 3065 3061 3060 3052 3044 3037 3033 3029 3025 3023 3020 3015 3012 3009 3004 2999 2996 2990 2988 2988 2990 2986 2985 2977 2977 2983 2984 2984 2987 2988 2987 2990
3122 3118 3116 3113 3108 3104 3099 3094 3090 3085 3079 3073 3067 3062 3058 3055 3047 3038 3034 3030 3026 3022 3018 3014 3010 3007 3004 2998 2992 2989 2986 2979 2980 2982 2981 2979 2969 2973 2975 2975 2976 2977 2978 2980 2982
3119 3117 3114 3110 3107 3102 3098 3093 3087 3081 3074 3068 3064 3059 3056 3051 3043 3035 3029 3027 3024 3019 3014 3010 3006 3003 2999 2994 2988 2985 2978 2976 2973 2975 2975 2973 2965 2965 2969 2969 2969 2970 2971 2972 2974
3117 3115 3112 3108 3105 3101 3095 3090 3084 3077 3070 3064 3061 3061 3053 3046 3038 3031 3027 3023 3019 3014 3011 3007 3002 2996 2992 2991 2986 2982 2977 2973 2969 2969 2970 2962 2954 2957 2961 2962 2961 2961 2962 2963 2967
3116 3113 3110 3106 3102 3098 3094 3086 3084 3075 3065 3062 3059 3053 3047 3044 3036 3028 3023 3019 3014 3009 3005 3002 2998 2993 2991 2988 2984 2979 2975 2968 2960 2963 2961 2954 2946 2946 2951 2951 2950 2952 2954 2956 2960
3114 3111 3107 3104 3100 3094 3089 3083 3078 3071 3064 3061 3057 3051 3043 3035 3030 3025 3022 3017 3011 3006 3001 2998 2992 2990 2987 2984 2980 2977 2971 2960 2952 2955 2954 2944 2937 2937 2938 2938 2941 2944 2946 2948 2953
3112 3108 3105 3102 3098 3093 3086 3080 3072 3065 3061 3058 3053 3047 3039 3032 3026 3021 3016 3011 3005 3003 2999 2993 2991 2987 2983 2979 2974 2970 2966 2957 2954 2948 2946 2939 2931 2926 2925 2926 2932 2935 2938 2943 2946
3110 3106 3104 3100 3097 3090 3084 3078 3070 3061 3057 3060 3053 3044 3040 3032 3027 3021 3016 3011 3005 3000 2993 2990 2987 2984 2981 2976 2972 2963 2962 2956 2950 2949 2943 2941 2931 2923 2921 2922 2925 2928 2931 2936 2940
3108 3105 3102 3098 3094 3088 3083 3076 3068 3063 3063 3061 3053 3048 3040 3034 3029 3023 3014 3010 3005 3001 2997 2991 2984 2980 2978 2975 2971 2965 2958 2951 2945 2942 2942 2934 2937 2922 2922 2920 2920 2920 2921 2926 2933
3106 3105 3102 3098 3092 3087 3082 3075 3069 3066 3062 3061 3055 3046 3041 3033 3027 3021 3016 3011 3003 2999 2996 2988 2984 2982 2978 2975 2970 2963 2952 2941 2936 2937 2938 2930 2931 2925 2923 2920 2916 2917 2918 2920 2927
3104 3103 3100 3096 3092 3086 3081 3076 3072 3071 3072 3063 3050 3044 3038 3030 3025 3018 3012 3006 3002 2994 2991 2986 2985 2983 2979 2969 2965 2960 2952 2943 2940 2937 2934 2929 2930 2925 2922 2918 2914 2910 2913 2916 2924
3102 3101 3099 3095 3090 3086 3082 3077 3073 3073 3067 3059 3051 3045 3038 3029 3026 3020 3014 3011 3009 3005 2997 2992 2986 2984 2981 2977 2969 2962 2958 2954 2950 2935 2932 2928 2926 2921 2919 2916 2907 2902 2907 2914 2922
3101 3099 3097 3094 3090 3087 3083 3078 3079 3074 3067 3058 3049 3040 3038 3034 3027 3020 3016 3014 3012 3008 3007 2998 2989 2987 2984 2979 2972 2959 2956 2952 2949 2939 2938 2926 2927 2925 2917 2908 2900 2892 2903 2914 2921
3099 3097 3095 3093 3089 3087 3083 3079 3076 3072 3066 3060 3053 3046 3039 3034 3029 3025 3020 3018 3015 3012 3008 3004 2994 2989 2985 2982 2975 2968 2962 2952 2947 2942 2937 2929 2933 2936 2918 2908 2902 2900 2908 2916 2919
3097 3095 3094 3092 3089 3088 3083 3079 3076 3072 3067 3062 3056 3049 3045 3038 3032 3028 3026 3022 3017 3011 3008 3004 3001 2990 2986 2983 2974 2965 2958 2954 2950 2947 2944 2938 2944 2941 2930 2916 2912 2914 2915 2919 2923
3095 3094 3092 3091 3091 3087 3082 3079 3076 3072 3066 3062 3056 3049 3044 3040 3034 3031 3028 3025 3020 3014 3009 3007 3001 2992 2991 2988 2982 2975 2964 2957 2952 2951 2948 2946 2948 2942 2931 2920 2920 2922 2922 2926 2930
3092 3091 3089 3089 3088 3087 3082 3078 3075 3072 3067 3061 3057 3052 3047 3041 3037 3033 3030 3027 3022 3016 3013 3011 3006 2998 2992 2992 2986 2974 2967 2957 2953 2953 2955 2954 2951 2944 2934 2928 2927 2928 2931 2935 2938
3091 3090 3088 3087 3087 3086 3082 3078 3074 3071 3067 3062 3057 3052 3048 3043 3040 3036 3032 3029 3024 3019 3016 3013 3008 3006 3006 2999 2995 2984 2975 2969 2963 2961 2962 2963 2957 2947 2938 2935 2935 2935 2939 2943 2946
3088 3088 3087 3086 3086 3084 3081 3077 3075 3071 3067 3062 3056 3053 3048 3045 3040 3037 3035 3032 3027 3022 3019 3015 3012 3009 3007 3002 2999 2996 2986 2977 2969 2969 2967 2966 2957 2952 2947 2944 2943 2943 2946 2949 2954
3086 3087 3085 3084 3084 3083 3081 3077 3074 3071 3069 3063 3058 3053 3049 3046 3043 3039 3039 3034 3031 3027 3021 3019 3017 3013 3008 3005 3002 3000 2993 2987 2980 2976 2972 2967 2963 2959 2954 2951 2951 2952 2954 2956 2961
3082 3083 3083 3082 3083 3082 3079 3076 3073 3070 3068 3063 3058 3053 3049 3047 3044 3041 3040 3038 3034 3029 3024 3021 3019 3016 3013 3010 3006 3002 3001 2997 2993 2986 2978 2973 2976 2970 2965 2960 2958 2961 2965 2967 2973